Terug naar catalogus

COSMOS 1275 DEB

ActiefPO
NORAD 42229·DEBRIS·🇷🇺 Russia

Gelanceerd Jun 4, 1981 vanaf Plesetsk Cosmodrome

Loading…

Volgende Passages (komende 24 uur)

TLE

VersSource: Space-Track

Epoch: Sep 11, 2026, 21:40 UTC

1 42229U 81053UV  26254.90286325  .00000420  00000-0  56241-3 0  9997
2 42229  83.0168 309.7714 0218294  23.9983 337.1148 13.48728574628673

Volg COSMOS 1275 DEB in realtime met AllMySat

Download on the App Store